Wind_Speed
16 14 10 6 4 4 5 5 3 3 3 2 1 2 4 5 3 2 2 5 8 13 15 15 13 11 9 8 5 4 3 4 6 8 8 10 12 15 18 21 21 20 21
10 12 6 3 5 5 4 3 3 2 3 3 4 3 2 1 1 5 6 6 5 5 7 7 8 8 8 7 6 6 7 5 4 6 7 9 12 14 16 18 19 21 22
9 4 2 1 3 3 2 1 3 3 4 4 3 3 2 2 3 3 3 2 2 4 5 7 9 10 10 10 10 10 11 12 12 12 13 13 15 18 20 21 21 22 24
4 4 3 1 2 4 2 2 5 5 4 5 5 3 4 4 4 6 6 6 7 9 10 11 13 14 14 14 13 12 13 13 14 16 17 19 21 23 25 26 28 29 30
5 4 4 3 5 7 4 3 4 6 7 7 7 6 5 7 7 8 9 10 11 13 15 15 15 14 12 12 13 13 15 17 19 21 23 24 26 28 30 32 33 35 36
5 9 8 5 7 7 4 4 5 4 8 10 9 9 8 8 8 10 12 13 13 12 11 11 11 13 15 15 15 17 18 21 22 23 25 28 30 32 34 35 37 39 41
5 9 8 10 13 12 9 8 3 3 5 7 8 10 10 9 9 10 9 9 9 9 10 12 16 17 17 18 19 19 20 22 24 26 28 30 32 34 37 39 41 42 43
9 10 14 15 8 9 6 9 2 4 6 8 9 7 7 7 6 7 9 10 11 14 17 18 17 17 19 21 20 22 25 26 28 30 31 32 33 35 37 39 41 43 43
15 6 2 3 6 12 10 8 4 5 7 8 7 5 4 6 8 12 15 16 16 16 16 18 20 20 21 23 25 27 28 30 32 33 35 35 35 36 37 38 39 40 41
11 6 1 3 5 8 10 8 8 7 7 10 11 13 14 15 16 15 15 17 17 20 23 23 24 25 27 28 28 30 33 35 36 37 38 38 37 37 38 39 39 40 40
2 3 4 4 5 8 14 12 9 11 11 12 14 17 18 20 20 21 20 21 22 23 25 27 29 28 30 31 32 36 38 40 40 40 40 41 40 39 38 38 39 40 40
5 6 7 11 13 12 15 11 12 14 15 17 19 20 22 22 24 25 27 29 28 28 28 29 32 33 36 37 37 40 42 40 39 41 42 43 42 40 41 40 39 40 40
9 14 15 18 14 16 17 15 18 20 20 18 20 21 23 26 27 29 30 32 33 32 33 34 34 35 36 38 40 42 43 42 41 41 41 39 39 40 40 40 39 39 40
12 14 16 15 17 20 19 20 22 20 21 21 23 24 26 27 29 31 32 33 35 36 36 37 37 38 39 41 42 42 43 41 39 38 37 37 38 38 39 39 38 37 36
15 18 21 21 22 23 24 24 24 24 24 25 27 28 29 30 30 30 32 35 37 37 37 38 39 41 42 43 42 41 40 39 37 37 36 35 35 36 36 35 35 34 34
21 22 24 25 26 27 29 28 28 28 28 31 31 31 30 30 31 33 36 37 37 39 41 43 44 44 43 40 40 39 38 37 38 38 37 36 35 34 34 33 34 34 33
26 27 28 28 29 30 32 32 32 31 31 32 32 32 32 32 34 37 38 37 39 42 43 44 44 41 39 38 38 37 37 38 38 38 38 37 37 38 38 38 38 37 38
30 31 30 31 33 35 36 36 36 36 37 35 34 34 34 36 38 40 39 40 43 44 44 41 39 38 36 36 36 37 37 37 38 39 40 41 42 43 44 45 44 44 44
30 31 31 33 35 36 36 37 37 37 36 36 37 38 39 39 39 40 41 44 44 41 39 36 35 35 36 37 37 38 39 40 42 43 44 45 46 46 46 46 46 46 46
31 33 35 36 38 38 39 39 37 37 38 37 38 38 37 39 44 42 42 41 37 35 35 35 35 35 36 38 40 41 41 42 44 45 45 44 43 42 41 41 42 43 43
34 36 36 36 36 38 38 37 37 38 39 37 38 42 41 39 37 36 35 35 35 35 35 35 36 38 40 41 41 41 42 41 40 40 42 42 42 42 42 42 41 40 39
36 32 30 31 33 33 31 32 34 33 37 37 37 38 40 37 35 36 35 35 34 35 37 39 41 41 39 40 40 38 39 42 42 41 41 42 41 41 41 41 41 40 39
34 31 31 34 36 35 35 33 35 38 41 40 39 36 35 34 34 35 35 34 36 38 39 37 37 38 38 37 37 39 41 41 41 41 41 39 40 41 41 41 42 41 41
35 34 35 34 34 32 33 36 39 41 38 34 32 32 31 32 34 35 35 36 37 36 36 37 35 36 38 39 40 41 41 40 39 38 38 39 40 41 42 42 42 42 41
35 35 34 32 31 33 35 34 34 33 33 32 31 30 32 33 33 35 34 33 35 34 34 35 37 38 39 40 41 39 36 37 38 38 38 39 40 41 42 42 42 42 42
35 32 33 31 32 31 33 33 33 32 30 29 29 31 32 31 28 30 32 32 32 34 36 38 39 39 40 40 38 35 36 37 38 38 39 40 41 42 42 42 41 42 42
Wind_Direction
228 203 199 221 235 230 234 233 249 263 257 251 287 329 358 1 351 83 106 97 81 78 71 65 63 60 52 49 52 53 1 348 321 312 294 282 279 278 275 275 275 276 278
153 163 193 248 259 219 223 221 257 270 285 274 271 292 305 341 126 110 103 107 94 70 53 37 29 26 21 16 7 354 336 333 313 300 294 288 282 277 276 276 277 276 276
85 104 193 167 261 255 235 182 250 260 273 279 283 292 276 235 217 202 192 223 280 303 325 335 334 332 330 327 324 319 314 308 301 295 290 285 282 283 283 282 280 277 274
91 160 161 287 242 268 278 348 265 263 278 291 291 287 294 256 252 266 263 268 285 298 305 308 307 308 309 309 308 306 302 299 295 292 289 287 288 289 288 288 286 283 279
288 250 146 202 262 274 250 315 301 275 287 288 288 287 279 268 253 256 267 272 275 283 290 294 298 303 309 312 310 305 301 300 297 296 295 295 294 292 290 288 287 287 284
289 276 280 226 248 281 304 259 282 307 293 292 298 299 286 277 276 274 275 277 275 281 291 300 302 302 301 302 304 303 301 302 298 297 296 293 292 290 286 284 282 281 282
309 302 282 281 279 272 290 237 251 295 301 299 293 288 290 289 288 288 280 279 283 289 292 292 299 300 300 300 301 301 299 299 299 297 295 292 291 289 286 284 281 281 280
271 288 298 275 265 279 294 224 181 302 322 313 304 307 288 281 285 289 289 296 293 296 298 299 301 302 303 304 305 305 304 304 304 301 298 295 292 290 288 286 283 282 282
278 232 152 297 340 338 360 9 283 297 320 310 300 299 296 304 300 302 302 303 301 304 304 303 302 303 305 307 307 305 306 307 307 305 303 300 296 293 289 288 286 285 285
204 151 54 308 312 328 314 333 343 311 301 297 302 304 306 304 303 309 307 306 305 307 304 303 302 303 305 308 310 311 312 312 310 307 306 304 300 297 294 291 289 289 289
118 189 242 274 284 286 282 279 301 306 307 303 297 297 300 304 308 309 309 306 306 303 302 302 301 302 305 308 313 316 313 310 308 306 304 303 301 296 292 291 290 291 292
262 288 286 289 273 266 272 284 288 287 286 288 293 294 295 297 303 306 306 307 306 304 304 302 301 301 303 309 311 312 312 309 305 303 302 301 300 299 299 298 295 294 293
280 275 263 266 279 290 285 297 297 292 294 300 305 303 297 298 299 300 303 304 303 302 302 301 302 304 307 308 308 309 307 304 302 301 301 300 299 299 299 297 297 297 295
275 285 297 293 296 292 295 290 295 301 287 293 294 299 299 297 297 299 301 303 303 302 300 299 302 307 307 307 307 304 303 303 304 304 303 304 304 302 299 298 297 296 295
273 277 284 288 291 293 294 294 298 301 300 297 296 297 296 295 297 297 298 299 299 296 297 301 304 305 306 306 305 305 305 305 304 306 307 306 305 305 303 301 301 300 299
282 283 284 287 290 289 289 291 292 293 296 296 296 296 295 295 295 297 299 299 297 298 300 303 304 304 305 306 308 308 307 305 307 307 307 306 304 303 303 303 302 301 299
285 285 285 286 289 289 290 290 290 293 293 291 291 291 291 290 291 295 296 297 298 299 301 302 303 306 307 308 308 308 308 307 307 306 305 303 301 300 299 298 297 296 296
284 285 287 288 287 286 287 289 290 289 288 286 284 285 287 289 292 295 294 297 301 303 302 304 306 306 307 307 307 306 306 305 304 302 300 299 299 299 299 298 297 295 294
282 284 284 284 283 283 284 286 287 286 287 288 288 288 288 288 292 294 295 298 299 302 306 306 305 305 304 304 305 304 302 301 300 298 298 300 302 302 301 300 298 296 293
284 284 281 279 279 279 279 281 283 286 286 286 288 290 290 295 294 290 296 303 308 306 303 301 301 301 302 303 303 302 303 303 303 303 304 305 306 306 306 305 303 300 297
278 279 277 274 275 278 281 283 284 284 288 289 288 290 290 291 294 299 304 302 301 302 300 300 301 302 304 305 305 305 305 306 307 308 308 308 308 308 309 309 308 307 303
276 270 276 281 282 281 278 279 281 284 287 287 287 287 290 293 300 301 301 304 303 301 300 303 304 304 305 305 305 307 308 309 309 308 307 307 306 306 308 308 309 309 309
262 264 277 283 280 280 278 280 283 284 285 287 289 291 295 297 298 300 300 300 299 299 301 302 302 304 305 304 305 306 308 308 306 306 307 307 307 308 310 310 309 308 307
253 267 281 276 277 274 274 275 277 281 286 288 292 293 293 297 300 297 297 300 302 303 302 303 303 303 303 304 307 308 308 307 308 308 308 308 309 310 310 309 308 307 306
264 273 273 272 270 272 276 275 279 284 287 291 292 295 297 295 296 300 302 302 302 302 301 302 303 304 306 308 309 307 307 308 309 309 309 309 309 310 310 310 309 308 307
269 264 265 264 261 268 275 280 283 286 288 289 291 294 296 299 301 300 299 299 301 303 304 305 306 307 307 307 307 307 307 308 309 309 310 310 311 312 312 311 309 308 307
Height
5857 5861 5862 5864 5864 5864 5864 5863 5863 5864 5863 5863 5862 5861 5860 5859 5859 5858 5859 5858 5856 5854 5854 5853 5852 5851 5849 5849 5849 5849 5849 5849 5848 5848 5848 5848 5847 5847 5847 5846 5845 5844 5843
5854 5861 5864 5866 5866 5865 5864 5861 5862 5862 5862 5861 5861 5860 5859 5859 5859 5858 5858 5858 5856 5855 5854 5854 5853 5853 5851 5850 5849 5849 5848 5847 5846 5846 5845 5845 5844 5843 5842 5840 5839 5838 5836
5860 5864 5865 5865 5866 5865 5862 5859 5860 5860 5861 5861 5859 5858 5858 5858 5858 5858 5858 5858 5857 5855 5853 5852 5852 5851 5850 5848 5847 5846 5846 5845 5844 5844 5843 5842 5841 5839 5838 5836 5835 5833 5831
5862 5863 5865 5864 5863 5863 5861 5859 5859 5859 5859 5859 5859 5858 5857 5856 5856 5857 5857 5856 5856 5855 5853 5852 5851 5849 5848 5846 5844 5843 5843 5842 5842 5840 5838 5837 5835 5834 5832 5830 5829 5827 5825
5863 5863 5862 5861 5861 5860 5858 5858 5857 5857 5857 5857 5858 5857 5855 5855 5854 5854 5855 5854 5853 5853 5852 5850 5848 5847 5845 5843 5841 5840 5839 5838 5836 5835 5833 5831 5830 5827 5825 5823 5820 5818 5816
5861 5862 5862 5859 5856 5859 5857 5855 5855 5856 5856 5855 5855 5855 5854 5853 5852 5851 5851 5851 5850 5849 5848 5847 5846 5844 5842 5840 5838 5836 5835 5833 5831 5829 5827 5825 5823 5820 5818 5815 5812 5809 5807
5858 5859 5859 5859 5860 5859 5856 5853 5853 5853 5853 5852 5852 5852 5850 5850 5850 5850 5848 5848 5847 5845 5844 5844 5842 5840 5838 5836 5834 5833 5831 5829 5827 5824 5821 5819 5816 5813 5810 5806 5803 5800 5797
5854 5854 5856 5855 5857 5856 5854 5851 5851 5850 5849 5850 5850 5848 5846 5847 5847 5848 5847 5845 5844 5842 5841 5839 5837 5836 5834 5832 5829 5827 5825 5823 5820 5818 5814 5810 5807 5804 5800 5796 5792 5789 5786
5846 5847 5850 5853 5852 5854 5853 5850 5851 5850 5849 5849 5848 5847 5845 5844 5843 5844 5843 5841 5839 5838 5836 5834 5833 5830 5828 5826 5824 5820 5817 5815 5811 5808 5804 5801 5796 5793 5789 5785 5781 5778 5774
5841 5844 5847 5847 5849 5851 5852 5849 5848 5847 5847 5847 5846 5845 5844 5843 5841 5840 5838 5836 5834 5833 5831 5829 5826 5823 5820 5818 5816 5812 5809 5805 5802 5797 5793 5789 5786 5781 5777 5773 5770 5766 5763
5844 5844 5844 5844 5845 5847 5848 5845 5844 5844 5843 5842 5841 5841 5839 5838 5837 5836 5834 5831 5829 5827 5825 5822 5819 5816 5813 5810 5807 5804 5800 5795 5791 5787 5782 5778 5774 5769 5766 5762 5759 5755 5752
5841 5841 5843 5844 5842 5841 5842 5839 5838 5837 5836 5836 5836 5835 5834 5833 5830 5828 5827 5825 5822 5820 5817 5814 5811 5808 5805 5800 5796 5793 5789 5784 5780 5775 5771 5767 5762 5758 5754 5750 5747 5743 5740
5839 5841 5840 5840 5838 5837 5836 5833 5833 5831 5830 5828 5828 5827 5826 5825 5823 5821 5818 5816 5814 5811 5808 5805 5802 5799 5795 5790 5786 5781 5777 5773 5769 5765 5760 5756 5752 5747 5743 5740 5736 5731 5728
5834 5834 5836 5836 5835 5834 5832 5829 5827 5825 5823 5822 5821 5819 5818 5817 5814 5812 5810 5807 5804 5801 5798 5795 5791 5788 5784 5780 5775 5771 5767 5763 5758 5753 5749 5745 5741 5737 5733 5729 5725 5721 5718
5829 5829 5828 5829 5828 5827 5826 5824 5822 5820 5818 5816 5814 5812 5810 5808 5806 5804 5802 5799 5796 5792 5788 5785 5781 5777 5773 5768 5764 5759 5755 5751 5748 5744 5739 5735 5731 5727 5723 5719 5715 5711 5707
5822 5821 5822 5821 5821 5820 5819 5816 5814 5812 5809 5808 5806 5803 5801 5799 5797 5795 5792 5789 5785 5781 5778 5774 5769 5765 5760 5756 5753 5749 5745 5741 5736 5732 5728 5725 5721 5717 5714 5710 5706 5702 5698
5814 5813 5814 5813 5811 5810 5809 5807 5806 5802 5801 5799 5797 5795 5792 5790 5788 5784 5781 5778 5774 5771 5768 5763 5758 5754 5750 5746 5742 5739 5734 5730 5726 5722 5719 5715 5711 5708 5704 5700 5696 5692 5688
5805 5805 5804 5803 5802 5801 5799 5797 5795 5794 5792 5789 5787 5785 5782 5780 5777 5774 5770 5767 5764 5760 5756 5751 5748 5744 5740 5736 5732 5729 5725 5721 5717 5712 5708 5704 5700 5696 5692 5688 5684 5680 5676
5796 5796 5795 5794 5792 5791 5788 5787 5786 5784 5782 5780 5777 5775 5772 5769 5766 5763 5759 5756 5753 5750 5746 5742 5738 5734 5730 5726 5722 5719 5715 5711 5707 5702 5697 5693 5688 5683 5679 5674 5670 5666 5662
5787 5787 5785 5784 5783 5781 5778 5777 5776 5774 5771 5769 5767 5764 5761 5758 5755 5752 5748 5746 5743 5740 5736 5732 5728 5724 5720 5717 5712 5708 5704 5699 5695 5690 5685 5680 5675 5671 5666 5661 5657 5653 5648
5778 5777 5775 5772 5771 5770 5768 5767 5765 5762 5760 5758 5756 5753 5750 5747 5744 5741 5739 5736 5733 5730 5727 5723 5719 5715 5710 5705 5701 5697 5693 5688 5684 5679 5674 5669 5665 5660 5655 5650 5645 5640 5636
5766 5765 5762 5761 5760 5759 5758 5756 5755 5753 5751 5749 5746 5743 5740 5736 5734 5732 5730 5727 5723 5719 5715 5712 5708 5704 5700 5695 5691 5686 5682 5678 5673 5668 5663 5658 5653 5649 5644 5639 5634 5629 5624
5753 5752 5752 5752 5750 5749 5748 5746 5745 5742 5741 5738 5735 5732 5729 5727 5725 5723 5721 5717 5713 5710 5707 5702 5698 5694 5690 5686 5682 5677 5672 5667 5663 5658 5653 5648 5643 5638 5633 5628 5623 5619 5614
5743 5743 5743 5742 5741 5740 5739 5737 5735 5734 5731 5728 5726 5724 5721 5719 5717 5715 5711 5708 5704 5701 5697 5693 5688 5684 5681 5676 5671 5666 5661 5656 5651 5647 5642 5638 5633 5627 5623 5617 5613 5608 5603
5734 5733 5732 5732 5732 5731 5729 5728 5726 5724 5722 5720 5718 5716 5713 5710 5707 5704 5701 5698 5695 5691 5687 5683 5680 5675 5670 5665 5660 5655 5651 5646 5641 5637 5632 5628 5623 5617 5612 5606 5601 5596 5591
5723 5723 5724 5723 5722 5720 5719 5718 5716 5715 5713 5711 5708 5705 5704 5701 5698 5696 5693 5689 5685 5681 5677 5674 5669 5663 5659 5654 5649 5645 5641 5636 5631 5627 5622 5616 5611 5606 5600 5595 5590 5585 5580